Simultaneous Nadir Overpasses (SNOs) Predictions

Prediction of SNOs between NOAA-19 and TERRA Satellite Orbit:

Table of predicted SNOs for the next 14.0 days since TLE Epoch: 11/23/2024
Index Date (NOAA-19) Time (NOAA-19) Lat,Lon (NOAA-19) SZA (NOAA-19 ) Date (TERRA) Time (TERRA) Lat,Lon (TERRA) SZA (TERRA ) Distance(km) Time Diff (sec)
1 11/23/2024 22:07:32 47.96,-178.89 71.61 11/23/2024 22:08:23 47.95,-178.92 71.55 2.27 51
2 11/23/2024 22:56:19 -55.30, -7.99 102.26 11/23/2024 22:55:41 -55.29, -8.01 102.24 1.45 38
3 11/26/2024 01:05:51 48.82, 136.89 72.74 11/26/2024 01:06:57 48.88, 136.70 72.77 15.38 66
4 11/26/2024 01:55:48 -52.20, -54.25 104.44 11/26/2024 01:55:23 -52.21, -54.24 104.42 1.01 25
5 11/28/2024 04:55:11 -49.42,-100.17 106.36 11/28/2024 04:54:59 -49.42,-100.17 106.35 0.33 12
6 11/30/2024 07:54:45 -45.99,-146.23 108.81 11/30/2024 07:54:45 -45.99,-146.22 108.81 0.96 0
7 12/02/2024 10:53:22 -45.79, 169.10 108.62 12/02/2024 10:53:35 -45.84, 168.99 108.57 9.89 13
8 12/02/2024 11:36:32 71.84, -2.24 93.88 12/02/2024 11:35:19 72.15, -3.92 94.25 67.28 73
9 12/04/2024 13:51:42 -46.55, 124.81 107.68 12/04/2024 13:52:09 -46.60, 124.54 107.60 21.84 27
10 12/04/2024 14:41:58 49.01, -66.88 74.35 12/04/2024 14:40:46 49.02, -66.85 74.43 1.91 72
11 12/06/2024 16:50:02 -47.29, 80.53 106.78 12/06/2024 16:50:42 -47.37, 80.10 106.64 33.91 40



Historial Predications of SNOs between NOAA-19 and TERRA
